Location: Carrer del Canonge
(41.4901°N, 2.2931°E)
Time: 04:28:10
(UTC+00:00)

Cosmos 2034 Rocket - Pass Details

Date: 18 September 2020
Orbit: 957 x 1002 km, 82.9° (Epoch: 25 October)

Event Time Altitude Azimuth Distance (km) Brightness Sun altitude
Rises 18:52:18 0° 161° (SSE) 3,710 6.7 -11.6°
Reaches altitude 10° 18:55:00 10° 154° (SSE) 2,765 6.0 -12.1°
Maximum altitude 19:00:46 38° 88° (E) 1,483 4.5 -13.1°
Drops below altitude 10° 19:06:33 10° 23° (NNE) 2,771 6.3 -14.2°
Sets 19:09:14 0° 16° (NNE) 3,719 7.0 -14.7°
